Regional Weather Roundup
Issued by NWS Albany, NY

Home | Current Version | Previous Version | Graphics & Text | Print | Product List | Glossary Off
Versions: 1 2 3 4 5 6 7 8 9 10 11 12 13 14 15 16 17 18 19 20 21 22 23 24 25 26 27 28 29 30 31 32 33 34 35 36 37 38 39 40 41 42 43 44 45 46 47 48 49 50

000
ASUS41 KALY 270110
RWRALY

NEW YORK STATE HOURLY WEATHER ROUNDUP
NATIONAL WEATHER SERVICE ALBANY NY
900 PM EDT THU MAR 26 2015

NOTE: "FAIR" INDICATES FEW OR NO CLOUDS BELOW 12,000 FEET WITH NO
SIGNIFICANT WEATHER AND/OR NO OBSTRUCTIONS TO VISIBILITY.

NYZ032-033-038>043-046>054-057>066-NYZ062>081-270200-
EAST


CITY           SKY/WX    TMP DP  RH WIND       PRES   REMARKS
ALBANY         LGT RAIN  39  36  89 N8        29.75S FOG     WCI  33
GLENS FALLS    LGT RAIN  37  35  92 N3        29.75R
POUGHKEEPSIE   LGT RAIN  43  40  89 N6        29.69R
NEWBURGH       LGT RAIN  43  41  93 E15       29.68R FOG
MONTGOMERY     HVY RAIN  42  41  96 N8        29.69R FOG
WHITE PLAINS   FOG       52  51  97 NW10      29.63R VSB 1/4
ISLIP          FOG       51  49  92 SW13      29.62S VSB 1/4
NEW YORK CITY  CLOUDY    57  53  86 SW3       29.62R
CENTRAL PARK   CLOUDY    56  52  86 N7        29.66R
$$

NYZ005>009-017-018-044>046-055-056-270200-
CENTRAL


CITY           SKY/WX    TMP DP  RH WIND       PRES   REMARKS
FULTON         CLOUDY    33  31  92 W3        29.79S FOG
SYRACUSE       FLURRIES  34  32  92 W7        29.79S WCI  28
ROME           MIX PCPN  32  32 100 W3        29.78F
ELMIRA         CLOUDY    33  33 100 NE3       29.77R FOG
BINGHAMTON     LGT RAIN  34  33  96 N9        29.72S WCI  27
MONTICELLO     CLOUDY    39  39 100 NW9       29.70R WCI  33
$$

NYZ026>034-041>043-270200-
NORTH


CITY           SKY/WX    TMP DP  RH WIND       PRES   REMARKS
WATERTOWN      CLOUDY    34  32  92 SW3       29.78S FOG
FORT DRUM      NOT AVBL
MASSENA        CLOUDY    34  34 100 SW7       29.78S WCI  28
SARANAC LAKE   LGT SNOW  33  32  96 CALM      29.70S FOG
PLATTSBURGH    LGT RAIN  34  34 100 N5        29.76R FOG     WCI  30
$$

NYZ001>004-010>016-019>021-270200-
WEST


CITY           SKY/WX    TMP DP  RH WIND       PRES   REMARKS
NIAGARA FALLS  CLOUDY    34  32  92 SW10      29.82R WCI  26
BUFFALO        CLOUDY    33  32  96 SW12      29.83R FOG     WCI  24
DUNKIRK        CLOUDY    33  32  96 SW10      29.86S FOG     WCI  25
JAMESTOWN      CLOUDY    32  28  86 W7        29.81S WCI  26
WELLSVILLE     CLOUDY    34  31  88 NW14      29.78R WCI  25
ROCHESTER      CLOUDY    36  34  92 W5        29.81R WCI  32
PENN YAN       CLOUDY    34  33  96 CALM      29.78R FOG
$$

             KEY
       WCI = WIND CHILL INDEX
       VSB = VISIBILITY
       HX  = HEAT INDEX
$$



USA.gov is the U.S. government's official web portal to all federal, state and local government web resources and services.